Dewpoint
19 19 19 20 19 19 19 20 20 20 21 22 23 23 23 23 22 23 25 26 25 25 24 23 22 22 24 29 32 33 34 34 34 34 33 33 33 32 32 32 32 32 32 33 35 36 36 37 37 37 36 36 36 36 36 36 36 36 37 37 38 39 39 38 38 37 37 37 37 38 39 40 41 42 43 43 43 43 43 43 43 42 41 41 41 41
19 19 20 20 20 20 20 21 22 23 23 23 23 22 21 20 21 23 24 26 25 24 22 22 22 23 24 29 32 33 34 33 33 32 32 32 31 31 31 31 30 31 31 32 32 33 34 34 34 34 34 34 34 34 34 35 35 36 36 36 37 37 38 37 37 36 36 36 36 37 38 40 41 42 42 42 42 42 43 42 42 41 40 40 40 40
19 19 20 21 22 21 21 23 23 24 25 24 23 22 21 22 23 24 25 25 24 23 23 24 25 26 27 28 30 32 32 31 31 31 30 30 30 30 30 30 30 30 31 31 32 32 32 32 32 33 33 33 34 34 34 34 35 35 36 36 36 36 36 36 36 36 36 35 36 36 37 39 41 41 41 42 42 43 43 43 42 41 40 40 40 41
21 21 22 23 23 23 23 24 25 25 25 23 22 22 23 24 25 25 25 24 23 24 25 26 26 26 25 24 26 28 29 29 29 29 29 29 29 29 30 30 30 31 31 31 32 32 32 32 32 33 34 35 35 35 35 35 35 35 35 36 36 36 36 36 35 35 34 34 35 36 37 39 40 41 42 43 43 44 44 43 42 41 41 41 41 41
24 24 24 23 23 23 23 24 24 23 23 23 23 23 25 26 26 25 25 25 25 25 25 24 23 21 20 19 22 25 27 27 28 28 28 29 29 29 30 30 30 31 31 31 32 32 32 34 34 35 36 36 36 36 35 35 35 35 35 35 35 35 35 35 34 34 34 34 35 36 37 38 39 41 42 43 43 43 43 42 41 41 41 42 42 43
25 25 24 23 23 23 23 23 23 23 23 24 26 27 27 26 26 26 26 25 24 23 21 19 18 17 16 17 19 23 26 26 27 27 28 28 29 29 30 30 30 31 31 32 32 33 34 36 36 37 36 36 36 35 34 34 33 34 34 34 34 34 34 33 33 33 33 34 35 36 37 39 40 41 42 42 42 41 41 41 41 41 42 43 44 44
23 23 22 22 22 22 22 22 22 24 27 29 29 29 27 27 26 25 24 22 20 18 18 17 16 15 14 15 18 21 23 24 25 26 27 27 28 28 29 29 30 31 32 32 34 35 36 36 36 36 34 33 33 33 32 32 32 32 32 32 32 32 32 32 33 33 33 34 36 37 38 39 40 41 41 41 41 40 40 40 40 41 42 43 44 44
21 21 21 21 21 22 22 24 27 29 32 31 29 27 27 26 24 22 20 19 17 16 15 15 15 15 14 14 16 18 18 19 20 21 23 24 26 27 28 29 30 32 33 34 35 35 35 34 34 33 32 32 32 31 31 31 31 31 31 32 32 32 32 32 32 33 33 35 36 38 39 39 40 40 40 40 40 39 39 38 39 39 40 41 42 43
21 21 21 22 22 23 25 28 31 32 31 29 27 27 25 23 20 18 16 16 15 14 14 14 14 14 14 14 14 15 17 18 18 18 19 20 21 24 27 29 32 33 34 34 34 33 32 32 31 31 30 30 31 31 31 31 31 31 31 31 31 32 32 32 32 33 34 35 36 37 38 38 39 39 40 40 40 39 38 38 38 38 39 41 42 43
23 22 22 23 26 27 28 28 28 28 28 27 27 25 22 18 15 14 13 12 13 13 14 14 14 14 14 14 14 15 17 19 21 23 23 23 24 26 28 31 32 32 32 32 31 30 29 29 29 29 30 30 30 30 30 30 30 30 31 31 31 31 32 32 32 33 34 35 36 36 37 37 38 38 39 39 39 39 38 38 38 38 39 40 41 42
23 24 25 27 28 28 27 25 25 25 25 24 22 20 17 14 13 12 12 11 12 13 14 14 15 15 15 15 15 15 17 18 19 22 24 27 29 31 32 31 30 29 29 28 28 28 28 28 28 29 29 29 29 29 30 30 30 30 30 31 31 31 32 32 33 33 34 35 35 36 36 37 38 38 39 39 39 38 37 37 37 37 38 39 40 41
26 27 27 26 24 23 22 22 21 21 20 18 16 14 13 13 13 13 13 12 12 13 14 14 15 16 16 16 16 16 17 17 18 20 24 29 31 30 28 26 25 25 25 26 26 27 27 27 28 28 28 28 28 29 29 29 29 30 30 30 31 31 32 32 33 33 34 35 35 36 36 37 38 39 40 39 38 37 36 36 36 36 37 37 38 39
27 26 23 22 21 20 19 19 18 17 16 14 13 12 11 12 13 14 14 14 14 14 14 15 16 17 18 18 18 18 18 19 21 23 28 28 26 23 21 21 21 21 20 21 21 23 25 26 27 27 27 27 28 28 29 28 29 29 30 30 31 32 32 32 33 34 35 35 36 36 37 38 39 39 39 38 37 36 35 35 35 36 36 36 37 38
23 22 21 20 20 19 18 18 16 15 14 12 12 11 12 12 13 14 15 15 15 16 17 17 18 18 19 20 21 22 22 23 26 27 27 24 22 21 20 20 19 19 18 18 19 20 23 23 24 24 26 27 27 27 28 28 29 29 30 31 32 32 32 33 34 35 36 37 38 38 39 39 39 39 38 36 36 35 35 35 35 36 36 36 36 37
21 21 21 20 19 18 17 16 15 14 12 12 12 13 14 14 15 15 16 16 17 18 19 20 20 20 20 21 23 25 26 27 26 24 22 21 20 20 19 19 18 18 18 18 18 19 22 22 21 22 23 24 25 26 27 28 29 30 31 32 32 33 34 35 36 36 37 38 38 38 38 37 37 36 36 35 35 35 35 35 35 35 35 36 36 37
22 22 21 19 18 17 15 14 14 13 13 13 14 14 15 15 16 17 18 19 20 21 21 21 20 20 19 20 24 28 27 25 23 20 19 18 19 19 18 18 18 18 18 18 18 18 19 20 20 21 22 23 26 27 28 28 30 31 32 32 34 35 36 36 36 36 36 36 36 36 36 35 34 34 34 34 34 35 35 35 35 35 35 35 36 37
22 21 20 18 16 15 14 14 14 14 14 14 15 16 17 18 20 21 22 22 23 23 22 21 20 18 18 18 21 23 23 20 19 18 18 18 18 18 18 18 18 17 18 18 18 18 18 19 20 20 22 24 27 28 28 30 31 33 35 36 35 34 33 33 33 33 33 33 33 33 33 32 32 32 33 34 35 35 35 35 35 35 35 35 36 38
21 19 18 16 14 14 14 14 14 15 15 16 18 19 21 23 23 23 23 23 23 21 20 20 19 18 17 17 17 17 18 18 19 19 19 18 18 17 18 18 18 18 18 18 18 19 20 20 20 20 23 26 28 29 30 32 33 34 34 33 32 31 30 30 30 31 31 32 32 32 32 32 32 32 33 34 36 36 36 35 35 35 35 36 38 39
18 17 15 14 14 14 14 15 16 17 18 20 22 23 24 24 23 23 22 21 19 18 17 17 17 16 16 15 15 16 18 20 21 20 19 18 17 17 17 18 18 18 18 18 19 20 21 21 23 25 27 29 30 32 33 34 33 32 30 29 29 28 29 29 30 30 31 31 31 32 32 32 32 33 34 36 36 36 36 35 35 35 36 37 39 40
16 15 15 15 15 16 17 18 19 21 23 25 26 25 24 22 20 18 17 17 16 17 17 16 16 16 16 16 17 18 21 22 21 20 18 17 16 17 17 18 18 18 18 19 21 22 23 23 25 28 30 31 32 33 33 32 31 29 28 28 28 29 29 30 30 30 31 31 31 31 32 32 33 34 36 36 37 36 36 35 35 36 36 38 39 39
16 16 16 17 18 18 20 21 23 25 27 27 25 23 20 18 18 17 17 17 18 18 18 18 18 18 18 18 20 21 22 22 20 18 17 17 16 16 17 17 18 17 17 18 19 22 24 25 27 29 31 31 31 31 29 28 28 27 28 28 29 29 29 30 30 30 31 31 31 32 32 33 34 36 36 36 36 36 35 35 35 36 37 38 38 38
17 17 18 19 21 23 24 25 26 27 26 24 22 19 18 18 18 18 19 19 19 19 19 19 19 19 20 22 23 23 22 21 19 18 17 16 16 16 16 17 17 17 17 18 20 23 25 26 27 28 29 29 28 27 27 27 27 28 28 28 29 29 29 29 30 30 30 31 31 32 32 34 35 36 36 36 35 35 35 36 36 37 37 37 37 37
18 19 21 23 25 26 27 26 25 24 23 22 21 21 21 21 22 22 22 22 22 21 21 21 21 22 23 24 23 22 20 18 18 18 17 16 15 15 16 17 18 18 18 19 21 21 22 22 22 23 24 26 26 26 27 27 27 28 28 29 29 29 29 29 30 30 30 30 31 32 32 34 35 36 36 35 35 35 36 36 37 37 37 37 36 36
22 23 26 27 27 27 25 23 22 21 21 21 22 23 24 24 24 24 24 23 23 23 22 22 23 23 23 22 20 18 17 18 18 17 17 17 17 17 18 18 18 18 18 19 18 18 18 19 20 21 22 24 25 26 27 27 27 28 28 29 29 29 29 29 30 30 30 31 31 32 33 35 35 36 35 35 35 35 36 36 36 36 36 36 36 36
26 27 28 27 27 27 24 22 22 22 22 23 23 23 24 25 25 24 23 23 23 22 22 23 22 21 20 18 17 16 16 17 18 18 18 18 18 18 18 18 18 17 17 18 18 18 18 19 19 20 21 22 24 26 27 27 27 28 28 29 29 29 29 30 30 30 31 31 32 33 34 35 36 36 35 35 35 35 35 36 36 36 36 36 36 36
30 29 28 27 26 26 26 26 26 26 26 24 23 23 23 23 23 23 23 22 22 22 23 22 20 18 17 16 15 15 16 18 18 18 18 18 18 17 18 18 18 18 18 18 19 19 19 18 19 19 19 20 23 25 27 27 27 28 28 29 29 29 30 30 30 31 31 32 32 33 34 35 35 35 34 34 34 34 35 36 36 36 36 36 36 36
29 28 27 26 26 26 26 26 26 27 27 26 25 24 23 23 23 22 21 21 21 22 22 20 18 17 16 15 15 16 17 18 18 18 18 18 18 17 17 18 18 18 18 18 18 19 19 19 19 19 20 20 22 24 26 27 28 28 28 29 29 29 29 29 30 30 30 31 32 32 33 33 33 33 33 33 34 35 35 36 36 36 36 36 36 36
27 26 25 25 25 25 25 26 26 26 26 26 27 27 25 23 22 21 20 21 21 22 21 19 18 17 16 15 15 16 17 17 18 18 18 18 17 17 17 17 18 18 17 18 18 19 21 20 20 20 20 20 21 23 26 27 27 27 28 28 28 28 28 29 29 29 30 31 31 32 32 32 33 33 34 34 35 36 36 36 36 36 36 35 34 34
23 23 24 24 24 24 24 24 24 25 26 26 26 26 25 23 22 22 21 22 22 22 20 19 18 17 17 16 16 16 16 16 17 17 17 17 17 17 17 17 17 18 18 18 18 18 19 19 19 19 19 21 21 22 23 25 26 26 27 27 27 27 28 28 29 30 30 31 31 32 32 33 34 34 35 35 35 35 35 35 35 35 34 34 33 33
20 20 21 22 22 22 22 21 22 23 25 25 26 25 25 23 22 23 23 23 23 22 20 19 18 18 17 17 16 15 14 15 15 17 17 17 17 17 17 18 18 18 18 18 18 17 16 17 18 18 19 20 21 21 21 22 23 23 24 25 26 27 28 29 29 30 31 31 32 32 33 34 34 35 34 34 34 34 34 34 34 33 33 33 34 34
18 18 18 18 18 19 19 20 20 21 23 24 24 24 23 23 23 23 24 23 23 22 20 19 18 18 18 17 15 14 13 14 16 18 18 18 18 18 18 18 18 19 19 19 18 17 15 15 16 18 19 20 20 21 21 22 22 22 22 23 25 27 28 29 30 31 31 32 32 33 34 33 33 33 32 32 32 33 33 33 34 34 34 34 34 34
17 18 17 18 18 18 18 19 19 19 20 21 22 22 23 23 23 24 24 23 23 22 21 20 19 18 18 18 17 15 14 15 17 19 19 19 19 19 19 19 19 19 20 20 19 18 17 16 17 18 18 19 20 20 21 22 22 23 23 25 26 27 29 30 31 31 32 32 32 32 32 32 31 31 31 32 32 33 33 34 34 34 35 34 34 34
18 18 18 18 18 18 18 18 18 19 19 20 20 21 22 23 23 23 23 23 23 22 22 21 20 19 18 18 18 17 17 17 18 21 22 21 20 20 20 20 19 19 20 20 20 19 18 18 18 18 18 19 19 20 21 22 23 24 25 26 26 27 28 30 30 30 30 30 30 30 30 30 30 30 31 32 32 33 33 34 34 34 34 34 34 35
18 18 18 18 18 18 18 19 19 19 19 20 20 21 21 21 22 22 22 22 23 23 22 22 21 20 19 18 18 18 18 18 19 22 23 22 21 21 20 20 20 20 20 20 19 19 19 18 18 18 18 19 20 21 22 22 23 23 24 24 25 26 27 27 27 27 27 27 26 26 27 27 29 30 30 31 32 32 33 33 34 34 35 35 35 35
18 19 19 18 18 18 19 19 19 19 19 20 20 20 21 21 21 21 22 22 22 23 23 23 22 22 21 20 19 18 18 18 20 23 24 23 23 22 21 20 20 19 20 19 19 19 18 18 19 19 19 19 20 20 20 20 20 21 22 23 24 24 24 25 25 25 25 25 25 25 26 26 27 28 29 30 31 32 33 33 34 34 35 36 36 36
18 18 19 18 18 18 18 19 19 19 19 19 19 19 20 20 20 21 21 22 22 23 23 23 23 23 23 22 21 20 20 20 22 23 25 24 23 23 21 20 20 20 20 20 20 19 19 19 19 20 20 19 19 18 18 18 19 20 21 22 23 23 23 23 24 24 24 25 25 25 26 26 27 27 29 30 32 32 33 34 34 35 35 36 36 37
18 18 19 18 18 18 18 18 18 18 18 18 19 19 20 20 21 21 21 22 23 23 23 23 23 23 24 23 23 23 22 22 23 24 25 25 24 23 22 21 21 22 21 21 21 20 20 19 19 20 19 18 17 17 17 18 18 19 20 20 21 22 22 23 24 25 25 25 26 26 27 27 27 28 29 31 32 32 33 34 35 35 36 36 36 37
19 18 18 18 18 18 18 18 18 18 18 18 19 19 20 20 21 22 22 23 23 23 23 22 23 23 25 25 25 25 25 24 24 25 26 25 25 24 23 23 22 23 23 22 22 22 21 20 20 19 18 17 17 18 18 18 18 18 18 19 20 22 23 23 25 25 26 26 27 27 27 28 28 29 30 31 31 32 32 33 34 35 36 36 36 37
18 18 18 18 18 18 17 17 18 18 18 19 19 20 20 21 22 23 22 23 23 23 22 22 22 23 23 24 25 26 26 26 26 26 26 26 25 25 24 23 23 23 23 23 23 23 23 22 21 19 18 17 17 18 18 18 18 18 18 19 20 21 22 23 24 25 26 26 27 27 27 28 28 29 29 30 31 31 31 32 33 34 35 35 36 36
18 18 18 18 18 18 17 18 18 18 19 20 20 21 21 21 21 21 22 22 22 22 22 22 22 22 23 23 24 25 25 26 26 26 26 26 26 25 24 24 23 23 23 24 25 25 24 23 21 20 19 18 18 18 18 18 18 18 20 20 19 20 22 23 24 25 26 26 27 27 27 28 28 29 30 30 31 31 31 32 32 33 34 34 35 35
18 18 17 17 18 18 18 18 19 19 19 20 20 20 20 19 19 19 20 20 20 21 21 21 21 21 22 22 23 23 23 24 25 25 25 26 26 25 25 25 25 25 25 25 25 24 23 22 21 20 19 18 18 18 18 18 18 20 21 20 20 20 22 23 24 25 26 27 27 27 28 28 29 29 29 30 31 32 32 32 33 33 34 35 35 34
18 17 17 17 17 18 18 18 19 19 19 19 19 18 18 19 19 19 19 19 19 19 20 20 20 20 20 20 21 22 23 23 24 25 26 26 26 26 26 26 26 26 26 25 24 23 22 22 21 20 19 18 18 18 17 18 19 20 21 21 21 22 23 23 24 25 25 26 27 27 28 28 28 28 29 30 31 32 33 34 34 35 35 35 36 36
17 17 17 17 18 18 18 19 19 19 18 18 18 18 18 18 19 19 20 19 19 19 19 19 19 19 19 19 20 20 21 23 23 24 25 26 27 27 27 27 27 27 26 24 23 22 21 21 20 19 18 18 18 18 17 18 18 19 20 21 22 22 22 22 23 24 25 26 26 27 27 28 28 29 30 31 32 33 34 35 36 36 36 36 36 36
18 18 18 18 18 18 18 18 18 17 18 18 18 18 18 18 19 20 20 19 19 19 19 19 20 20 19 19 19 19 20 21 23 24 26 27 28 28 27 27 26 25 25 24 22 21 19 19 18 18 18 19 18 18 18 18 18 19 20 22 23 23 22 23 23 24 25 26 26 27 27 28 29 30 31 32 32 33 34 34 35 35 36 37 37 37
17 17 18 18 18 17 17 17 17 17 17 17 17 18 18 18 19 20 20 19 19 19 19 20 20 19 18 18 18 18 18 20 22 23 25 27 27 27 26 25 25 25 24 23 22 21 19 18 18 18 19 19 19 19 19 19 19 20 21 23 23 24 24 24 25 25 25 25 26 27 28 29 30 30 30 31 32 33 34 34 35 35 36 36 37 37
17 17 17 17 17 17 17 17 17 17 17 17 17 17 18 18 19 19 20 20 20 20 20 20 20 19 18 18 18 18 18 20 21 22 23 23 24 24 25 25 24 24 23 22 21 21 20 19 19 19 19 19 19 19 19 20 20 21 22 23 23 23 24 24 25 25 25 26 27 27 29 30 31 31 31 31 32 33 34 35 35 35 36 36 37 37
17 17 16 16 16 16 16 17 17 17 17 17 17 17 18 18 18 19 20 20 20 20 20 20 19 19 18 18 18 19 19 20 21 21 21 21 22 22 23 23 23 23 22 21 21 21 21 21 21 21 20 19 19 19 19 21 22 22 23 23 23 23 23 24 25 26 27 27 28 29 30 31 31 31 31 32 32 33 34 35 35 36 36 36 37 37
17 17 16 16 16 16 16 16 16 16 16 16 17 17 18 18 19 20 19 19 20 20 20 19 19 18 18 18 19 20 21 21 21 20 20 20 20 21 22 22 21 21 21 21 21 21 21 22 22 22 22 20 20 20 20 22 23 23 23 23 23 24 24 24 25 26 27 28 29 30 31 31 31 31 31 31 32 32 33 34 35 36 36 36 37 37
17 17 17 17 16 16 16 16 16 16 16 17 17 18 18 19 20 20 19 19 19 19 19 19 19 18 18 19 19 20 21 21 20 20 19 19 20 21 21 21 20 19 19 19 19 19 19 21 23 24 24 23 23 23 23 23 23 23 23 24 24 24 25 25 26 27 28 29 30 31 32 32 32 32 32 31 31 32 32 33 35 36 36 37 37 37
16 16 17 17 17 16 16 17 17 17 17 17 18 18 18 18 18 18 19 19 19 19 19 19 19 19 19 19 20 20 20 20 20 19 19 19 20 20 21 20 19 18 17 17 17 17 17 19 21 23 26 27 26 25 24 23 23 23 23 24 25 26 26 26 27 27 28 29 30 31 32 32 32 32 32 31 31 31 32 32 34 35 36 37 37 38
17 17 17 17 17 17 17 17 17 17 18 18 18 18 18 18 18 18 18 18 18 19 19 19 19 20 19 20 20 20 20 20 19 19 19 19 20 20 20 19 18 18 16 16 15 15 15 16 17 19 21 24 26 26 25 24 23 23 23 24 25 26 27 27 27 27 29 29 30 31 31 31 31 31 31 31 30 30 30 31 32 34 36 36 37 37